FENGYUN 2H DEB, 43645

Orbit data source: Space-Track

FENGYUN 2H DEB, 43645 is space debris in GEO originally from a launch on Tue, 05 Jun 2018 UTC launched from the Xichang Space Center, China (XSC). Debris objects in space refer to the collection of defunct objects orbiting the Earth. Examples of debris include non-operational satellites, rocket bodies, and fragments generated from explosions, collisions, or faulty payload assembly.

Not visible in the next 10 days
Identifier
43645, 2018-050D
Orbit
GEO
Country
Flag of CNCN / PRC
Related business
Manufacturer
SISE
Mission
Spacecraft
Bus & Motor
Unknown
Mass
Unknown
Launch date (UTC)
2018-06-05 (8 years ago)
Launch vehicle
Unknown
Launch site
Xichang Space Center, China (XSC)
Object type
Payload
Rocket body
Debris
Shape & HBR
Cyl, 0.3 m
Radar Cross Section
0.137 m²

Expand to show TLE details & history
Last TLE update: 2 days ago

TLE from 2 days ago
0 FENGYUN 2H DEB
1 43645U 18050D   25351.82797362  .00000121  00000-0  00000-0 0  9990
2 43645   4.4342  78.5494 0062254 249.6499 109.3510  1.00260220 27102
Epoch: 2025-12-17T19:52Z
TLE epoch observation values (Epoch: 2025-12-17T19:52:16.920Z)
Latitude
-0.00001°
Longitude
53.4489°
Altitude
35,878.374 km
Speed
3.068 km/s
True Right ascension
05h 12m 50s
True Declination
0° 00' 00"
Sunlit
Object was in daylight at epoch
Visualization orbit readout
Latitude
Unknown
Longitude
Unknown
Altitude
Unknown
Speed
Unknown
Apparent Right ascension
Unknown
Apparent Declination
Unknown
Sunlit
N/A
Visualization observer readout
Local Sidereal Time
13:04:41
Azimuth
Unknown
Elevation
Unknown
Doppler factor
Unknown
Orbital elements
Apogee altitude
36,053.417 km
Perigee altitude
35,528.379 km
Semi-major axis
42,169.035 km
Eccentricity
0.00623
Inclination
4.4342°
RAAN
78.5494°
Arg. of periapsis
249.6499°
True anomaly
110.02233°
Mean anomaly
109.351°
Eccentric anomaly
109.68684°
Mean motion
0.25064 °/min
Orbital period
1,436.32 mins
BSTAR
0
Loading maneuver chart data...
Computing Atmospheric mass density...
Loading historical data...
Loading historical data...
Loading historical data...
Loading historical data...
Loading historical data...
Loading historical data...
Loading historical data...
Other satellites on launch #50 in the year 2018 (2018-06-05 UTC)

Documentation

Showing up to 5 results
|